Location: *
(33.8649°S, 62.1526°E)
Time: 12:12:41
(UTC+00:00)

Nadezhda 1 Rocket - Pass Details

Date: 17 January 2021
Orbit: 941 x 1005 km, 83.0° (Epoch: 03 March)

Event Time Altitude Azimuth Distance (km) Brightness Sun altitude
Exits shadow 19:10:54 59° 209° (SSW) 1,132 4.4 -34.2°
Drops below altitude 10° 19:16:12 10° 179° (S) 2,778 7.1 -34.5°
Sets 19:18:47 0° 176° (S) 3,741 8.0 -34.6°
